{"data":{"norad_id":60133,"epoch":"2026-09-19T21:44:46.347072Z","epoch_age_seconds":65623,"freshness":"FRESH","line1":"1 60133U 24119A   26262.90609198 -.00000253  00000+0  00000+0 0  9999","line2":"2 60133   0.0405   2.7397 0000325 247.8067 359.2727  1.00271642  7911","mean_motion":1.00271642,"eccentricity":3.25e-5,"inclination_deg":0.0405,"raan_deg":2.7397,"arg_perigee_deg":247.8067,"mean_anomaly_deg":359.2727,"bstar":0,"rev_number":791,"period_min":1436.0989520846,"perigee_km":35785.264694238,"apogee_km":35788.005404421,"semimajor_km":42164.772049329,"source":"CELESTRAK","updated_at":"2026-09-20T09:00:35.337683Z"}}